timestamp,wind_dir_avg,wind_spd_avg,wind_spd_max_dir,wind_spd_gust,battery_voltage,lat,long
2023-02-12 00:04:00+00:00,342.0,9.72,344.0,11.22,12.41,47.59359,-54.27349
2023-02-12 00:14:00+00:00,344.0,9.13,333.0,10.82,12.33,47.59359,-54.27349
2023-02-12 00:24:00+00:00,342.0,9.51,339.0,12.84,12.33,47.59359,-54.27349
2023-02-12 00:34:00+00:00,338.0,11.14,331.0,13.91,12.33,47.59359,-54.27349
2023-02-12 00:44:00+00:00,346.0,11.18,350.0,12.32,12.33,47.59359,-54.27349
2023-02-12 00:54:00+00:00,355.0,12.21,0.0,14.84,12.33,47.59359,-54.27349
2023-02-12 01:04:00+00:00,341.0,12.51,340.0,14.55,12.33,47.59359,-54.27349
2023-02-12 01:14:00+00:00,338.0,11.59,325.0,13.56,12.33,47.59359,-54.27349
2023-02-12 01:24:00+00:00,339.0,12.76,330.0,16.54,12.33,47.59359,-54.27349
2023-02-12 01:34:00+00:00,340.0,13.89,326.0,17.29,12.33,47.59359,-54.27349
2023-02-12 01:44:00+00:00,343.0,12.91,346.0,15.11,12.33,47.59359,-54.27349
2023-02-12 01:54:00+00:00,325.0,13.05,323.0,15.5,12.33,47.59359,-54.27349
2023-02-12 02:04:00+00:00,320.0,12.02,321.0,13.91,12.33,47.59359,-54.27349
2023-02-12 02:14:00+00:00,318.0,11.9,315.0,14.05,12.25,47.59359,-54.27349
2023-02-12 02:24:00+00:00,315.0,11.59,318.0,14.14,12.25,47.59359,-54.27349
2023-02-12 02:34:00+00:00,318.0,12.71,318.0,14.27,12.25,47.59359,-54.27349
2023-02-12 02:44:00+00:00,318.0,12.04,318.0,14.46,12.25,47.59359,-54.27349
2023-02-12 02:54:00+00:00,321.0,12.91,324.0,15.87,12.25,47.59359,-54.27349
2023-02-12 03:04:00+00:00,318.0,11.71,316.0,13.59,12.25,47.59359,-54.27349
2023-02-12 03:14:00+00:00,316.0,12.52,323.0,14.66,12.17,47.59359,-54.27349
2023-02-12 03:24:00+00:00,319.0,12.28,313.0,14.02,12.17,47.59359,-54.27349
2023-02-12 03:34:00+00:00,323.0,12.61,328.0,15.39,12.17,47.59359,-54.27349
2023-02-12 03:44:00+00:00,319.0,12.04,325.0,13.65,12.17,47.59359,-54.27349
2023-02-12 03:54:00+00:00,317.0,12.95,321.0,14.95,12.17,47.59359,-54.27349
2023-02-12 04:04:00+00:00,317.0,12.22,314.0,13.44,12.17,47.59359,-54.27349
2023-02-12 04:14:01+00:00,314.0,11.07,315.0,13.49,12.25,47.59359,-54.27349
2023-02-12 04:24:01+00:00,315.0,11.53,315.0,13.9,12.25,47.59359,-54.27349
2023-02-12 04:34:01+00:00,314.0,10.89,315.0,13.33,12.25,47.59359,-54.27349
2023-02-12 04:44:01+00:00,313.0,10.79,310.0,12.74,12.25,47.59359,-54.27349
2023-02-12 04:54:01+00:00,323.0,10.2,316.0,13.1,12.25,47.59359,-54.27349
2023-02-12 05:04:01+00:00,313.0,11.17,303.0,13.15,12.25,47.59359,-54.27349
2023-02-12 05:14:00+00:00,337.0,7.09,335.0,8.74,12.17,47.59359,-54.27349
2023-02-12 05:24:00+00:00,306.0,6.79,297.0,10.04,12.17,47.59359,-54.27349
2023-02-12 05:34:00+00:00,314.0,9.8,318.0,13.67,12.17,47.59359,-54.27349
2023-02-12 05:44:00+00:00,318.0,12.52,321.0,15.43,12.17,47.59359,-54.27349
2023-02-12 05:54:00+00:00,322.0,11.52,316.0,14.41,12.17,47.59359,-54.27349
2023-02-12 06:04:00+00:00,307.0,7.47,300.0,11.06,12.17,47.59359,-54.27349
2023-02-12 06:14:00+00:00,308.0,7.71,301.0,10.38,12.17,47.59359,-54.27349
2023-02-12 06:24:00+00:00,310.0,7.26,306.0,11.37,12.17,47.59359,-54.27349
2023-02-12 06:34:00+00:00,303.0,7.16,294.0,10.65,12.17,47.59359,-54.27349
2023-02-12 06:44:00+00:00,303.0,9.18,310.0,12.09,12.17,47.59359,-54.27349
2023-02-12 06:54:00+00:00,291.0,9.84,292.0,10.93,12.17,47.59359,-54.27349
2023-02-12 07:04:00+00:00,302.0,9.12,303.0,11.2,12.17,47.59359,-54.27349
2023-02-12 07:14:00+00:00,285.0,8.22,293.0,10.79,12.17,47.59359,-54.27349
2023-02-12 07:24:00+00:00,287.0,8.88,294.0,10.97,12.17,47.59359,-54.27349
2023-02-12 07:34:00+00:00,290.0,8.15,290.0,10.84,12.17,47.59359,-54.27349
2023-02-12 07:44:00+00:00,292.0,9.39,303.0,11.18,12.17,47.59359,-54.27349
2023-02-12 07:54:00+00:00,296.0,8.29,291.0,10.64,12.17,47.59359,-54.27349
2023-02-12 08:04:00+00:00,295.0,10.15,298.0,11.58,12.17,47.59359,-54.27349
2023-02-12 08:14:00+00:00,294.0,7.48,288.0,11.28,12.17,47.59359,-54.27349
2023-02-12 08:24:00+00:00,288.0,9.64,295.0,11.21,12.17,47.59359,-54.27349
2023-02-12 08:34:00+00:00,305.0,9.04,295.0,11.08,12.17,47.59359,-54.27349
2023-02-12 08:44:00+00:00,315.0,9.77,304.0,13.3,12.17,47.59359,-54.27349
2023-02-12 08:54:00+00:00,312.0,8.6,311.0,10.41,12.17,47.59359,-54.27349
2023-02-12 09:04:00+00:00,296.0,10.66,297.0,13.21,12.17,47.59359,-54.27349
2023-02-12 09:14:01+00:00,300.0,8.94,291.0,13.21,12.09,47.59359,-54.27349
2023-02-12 09:24:01+00:00,280.0,9.79,276.0,12.37,12.09,47.59359,-54.27349
2023-02-12 09:34:01+00:00,306.0,8.41,297.0,12.52,12.09,47.59359,-54.27349
2023-02-12 09:44:01+00:00,294.0,10.66,286.0,15.96,12.09,47.59359,-54.27349
2023-02-12 09:54:01+00:00,295.0,10.66,294.0,13.53,12.09,47.59359,-54.27349
2023-02-12 10:04:01+00:00,300.0,9.65,287.0,13.56,12.09,47.59359,-54.27349
2023-02-12 10:14:00+00:00,309.0,8.62,295.0,12.35,12.09,47.59359,-54.27349
2023-02-12 10:24:00+00:00,296.0,7.97,295.0,10.94,12.09,47.59359,-54.27349
2023-02-12 10:34:00+00:00,311.0,8.52,301.0,12.22,12.09,47.59359,-54.27349
2023-02-12 10:44:00+00:00,297.0,9.0,302.0,12.92,12.09,47.59359,-54.27349
2023-02-12 10:54:00+00:00,307.0,8.63,299.0,13.21,12.09,47.59359,-54.27349
2023-02-12 11:04:00+00:00,307.0,7.99,307.0,9.72,12.09,47.59359,-54.27349
2023-02-12 11:14:00+00:00,304.0,7.67,298.0,11.71,12.81,47.59359,-54.27349
2023-02-12 11:24:00+00:00,309.0,8.86,288.0,12.07,12.81,47.59359,-54.27349
2023-02-12 11:34:00+00:00,292.0,8.16,284.0,11.54,12.81,47.59359,-54.27349
2023-02-12 11:44:00+00:00,305.0,8.72,312.0,10.68,12.81,47.59359,-54.27349
2023-02-12 11:54:00+00:00,293.0,7.18,299.0,9.62,12.81,47.59359,-54.27349
2023-02-12 12:04:00+00:00,301.0,7.93,298.0,10.77,12.81,47.59359,-54.27349
2023-02-12 12:14:00+00:00,304.0,8.68,294.0,11.98,14.4,47.59359,-54.27349
2023-02-12 12:24:00+00:00,300.0,10.42,287.0,16.95,14.4,47.59359,-54.27349
2023-02-12 12:34:00+00:00,304.0,8.94,297.0,12.35,14.4,47.59359,-54.27349
2023-02-12 12:44:00+00:00,313.0,9.22,300.0,12.25,14.4,47.59359,-54.27349
2023-02-12 12:54:00+00:00,299.0,10.71,286.0,17.5,14.4,47.59359,-54.27349
2023-02-12 13:04:00+00:00,309.0,8.94,300.0,12.29,14.4,47.59359,-54.27349
2023-02-12 13:14:00+00:00,297.0,8.21,284.0,11.82,14.56,47.59359,-54.27349
2023-02-12 13:24:00+00:00,300.0,8.56,293.0,11.67,14.56,47.59359,-54.27349
2023-02-12 13:34:00+00:00,294.0,8.23,288.0,12.17,14.56,47.59359,-54.27349
2023-02-12 13:44:00+00:00,294.0,10.51,285.0,17.36,14.56,47.59359,-54.27349
2023-02-12 13:54:00+00:00,307.0,9.18,295.0,12.38,14.56,47.59359,-54.27349
2023-02-12 14:04:00+00:00,299.0,8.37,303.0,10.14,14.56,47.59359,-54.27349
2023-02-12 14:14:01+00:00,305.0,9.03,289.0,12.08,14.24,47.59359,-54.27349
2023-02-12 14:24:01+00:00,294.0,8.33,297.0,9.84,14.24,47.59359,-54.27349
2023-02-12 14:34:01+00:00,302.0,9.48,306.0,10.41,14.24,47.59359,-54.27349
2023-02-12 14:44:01+00:00,298.0,8.93,304.0,10.42,14.24,47.59359,-54.27349
2023-02-12 14:54:01+00:00,299.0,8.98,307.0,10.42,14.24,47.59359,-54.27349
2023-02-12 15:04:01+00:00,305.0,10.01,309.0,11.08,14.24,47.59359,-54.27349
2023-02-12 15:14:00+00:00,287.0,8.55,286.0,9.31,13.6,47.59359,-54.27349
2023-02-12 15:24:00+00:00,285.0,8.85,288.0,9.69,13.6,47.59359,-54.27349
2023-02-12 15:34:00+00:00,274.0,7.74,275.0,9.14,13.6,47.59359,-54.27349
2023-02-12 15:44:00+00:00,278.0,8.41,280.0,9.37,13.6,47.59359,-54.27349
2023-02-12 15:54:00+00:00,272.0,7.78,285.0,9.09,13.6,47.59359,-54.27349
2023-02-12 16:04:00+00:00,266.0,6.43,272.0,7.64,13.6,47.59359,-54.27349
2023-02-12 16:14:00+00:00,260.0,7.96,254.0,8.68,13.76,47.59359,-54.27349
2023-02-12 16:24:00+00:00,269.0,9.4,267.0,10.79,13.76,47.59359,-54.27349
2023-02-12 16:34:00+00:00,260.0,8.2,250.0,10.48,13.76,47.59359,-54.27349
2023-02-12 16:44:00+00:00,270.0,8.23,271.0,8.79,13.76,47.59359,-54.27349
2023-02-12 16:54:00+00:00,263.0,9.05,262.0,10.57,13.76,47.59359,-54.27349
2023-02-12 17:04:00+00:00,262.0,8.74,258.0,10.24,13.76,47.59359,-54.27349
2023-02-12 17:14:01+00:00,275.0,8.45,278.0,9.42,13.6,47.59359,-54.27349
2023-02-12 17:24:01+00:00,258.0,8.68,256.0,9.53,13.6,47.59359,-54.27349
2023-02-12 17:34:01+00:00,269.0,7.92,270.0,8.73,13.6,47.59359,-54.27349
2023-02-12 17:44:01+00:00,260.0,6.0,257.0,6.57,13.6,47.59359,-54.27349
2023-02-12 17:54:01+00:00,267.0,6.04,270.0,7.04,13.6,47.59359,-54.27349
2023-02-12 18:04:01+00:00,280.0,5.43,281.0,6.61,13.6,47.59359,-54.27349
2023-02-12 18:14:00+00:00,270.0,7.74,274.0,8.69,13.53,47.59359,-54.27349
2023-02-12 18:24:00+00:00,275.0,5.8,264.0,7.58,13.53,47.59359,-54.27349
2023-02-12 18:34:00+00:00,269.0,5.37,280.0,7.39,13.53,47.59359,-54.27349
2023-02-12 18:44:00+00:00,281.0,5.43,287.0,6.24,13.53,47.59359,-54.27349
2023-02-12 18:54:00+00:00,271.0,3.38,287.0,4.28,13.53,47.59359,-54.27349
2023-02-12 19:04:00+00:00,281.0,4.04,293.0,5.24,13.53,47.59359,-54.27349
2023-02-12 19:14:00+00:00,250.0,3.25,255.0,6.24,13.6,47.59359,-54.27349
2023-02-12 19:24:00+00:00,257.0,3.51,264.0,6.01,13.6,47.59359,-54.27349
2023-02-12 19:34:00+00:00,252.0,5.31,251.0,6.15,13.6,47.59359,-54.27349
2023-02-12 19:44:00+00:00,259.0,5.73,261.0,6.31,13.6,47.59359,-54.27349
2023-02-12 19:54:00+00:00,252.0,4.92,255.0,6.05,13.6,47.59359,-54.27349
2023-02-12 20:04:00+00:00,242.0,4.45,252.0,6.63,13.6,47.59359,-54.27349
2023-02-12 20:14:00+00:00,244.0,5.89,240.0,7.17,13.37,47.59359,-54.27349
2023-02-12 20:24:00+00:00,252.0,6.19,260.0,6.71,13.37,47.59359,-54.27349
2023-02-12 20:34:00+00:00,248.0,6.13,250.0,6.96,13.37,47.59359,-54.27349
2023-02-12 20:44:00+00:00,243.0,5.9,246.0,7.17,13.37,47.59359,-54.27349
2023-02-12 20:54:00+00:00,239.0,6.59,240.0,7.52,13.37,47.59359,-54.27349
2023-02-12 21:04:00+00:00,246.0,5.81,246.0,6.34,13.37,47.59359,-54.27349
2023-02-12 21:14:00+00:00,233.0,5.41,237.0,6.47,12.57,47.59359,-54.27349
2023-02-12 21:24:00+00:00,241.0,5.86,249.0,6.46,12.57,47.59359,-54.27349
2023-02-12 21:34:00+00:00,232.0,6.02,238.0,7.05,12.57,47.59359,-54.27349
2023-02-12 21:44:00+00:00,230.0,4.89,217.0,6.24,12.57,47.59359,-54.27349
2023-02-12 21:54:00+00:00,232.0,7.68,241.0,9.8,12.57,47.59359,-54.27349
2023-02-12 22:04:00+00:00,241.0,7.99,239.0,9.27,12.57,47.59359,-54.27349
2023-02-12 22:14:00+00:00,230.0,6.44,234.0,7.36,12.41,47.59359,-54.27349
2023-02-12 22:24:00+00:00,221.0,6.61,216.0,8.2,12.41,47.59359,-54.27349
2023-02-12 22:34:00+00:00,226.0,6.3,227.0,7.6,12.41,47.59359,-54.27349
2023-02-12 22:44:00+00:00,213.0,6.41,209.0,7.22,12.41,47.59359,-54.27349
2023-02-12 22:54:00+00:00,221.0,7.13,227.0,8.78,12.41,47.59359,-54.27349
2023-02-12 23:04:00+00:00,227.0,7.4,229.0,8.56,12.41,47.59359,-54.27349
2023-02-12 23:14:01+00:00,239.0,8.2,253.0,9.58,12.33,47.59359,-54.27349
2023-02-12 23:24:01+00:00,233.0,8.3,231.0,10.05,12.33,47.59359,-54.27349
2023-02-12 23:34:01+00:00,236.0,8.41,241.0,9.71,12.33,47.59359,-54.27349
2023-02-12 23:44:01+00:00,251.0,10.57,252.0,11.65,12.33,47.59359,-54.27349
2023-02-12 23:54:01+00:00,270.0,11.18,275.0,13.06,12.33,47.59359,-54.27349
